TimeCDT,TemperatureF,Dew PointF,Humidity,Sea Level PressureIn,VisibilityMPH,Wind Direction,Wind SpeedMPH,Gust SpeedMPH,PrecipitationIn,Events,Conditions,WindDirDegrees,DateUTC
12:53 AM,60.1,51.1,72,30.00,10.0,NW,5.8,-,N/A,,Clear,320,2013-10-07 05:53:00
1:53 AM,60.1,51.1,72,30.01,10.0,NW,5.8,-,N/A,,Clear,320,2013-10-07 06:53:00
2:53 AM,60.1,51.1,72,30.01,10.0,NNW,5.8,-,N/A,,Clear,330,2013-10-07 07:53:00
3:53 AM,59.0,51.1,75,30.01,10.0,NNW,6.9,-,N/A,,Clear,330,2013-10-07 08:53:00
4:53 AM,57.9,50.0,75,30.01,10.0,North,6.9,-,N/A,,Clear,360,2013-10-07 09:53:00
5:53 AM,57.9,48.9,72,30.02,10.0,North,6.9,-,N/A,,Clear,10,2013-10-07 10:53:00
6:53 AM,55.9,48.9,77,30.04,10.0,North,5.8,-,N/A,,Clear,10,2013-10-07 11:53:00
7:53 AM,57.9,50.0,75,30.06,10.0,North,8.1,-,N/A,,Clear,360,2013-10-07 12:53:00
8:53 AM,62.1,50.0,65,30.07,10.0,NNE,11.5,-,N/A,,Clear,20,2013-10-07 13:53:00
9:53 AM,66.0,50.0,56,30.08,10.0,NE,9.2,-,N/A,,Clear,40,2013-10-07 14:53:00
10:53 AM,70.0,48.0,46,30.08,10.0,NE,11.5,-,N/A,,Clear,40,2013-10-07 15:53:00
11:53 AM,72.0,48.9,44,30.07,10.0,NNE,12.7,18.4,N/A,,Clear,20,2013-10-07 16:53:00
12:53 PM,73.9,48.9,41,30.06,10.0,NNE,15.0,-,N/A,,Clear,20,2013-10-07 17:53:00
1:53 PM,75.0,48.9,40,30.03,10.0,NNE,9.2,18.4,N/A,,Clear,20,2013-10-07 18:53:00
2:53 PM,77.0,50.0,39,30.01,10.0,North,15.0,20.7,N/A,,Clear,360,2013-10-07 19:53:00
3:53 PM,77.0,50.0,39,30.00,10.0,North,13.8,-,N/A,,Clear,10,2013-10-07 20:53:00
4:53 PM,77.0,50.0,39,30.00,10.0,North,13.8,-,N/A,,Clear,360,2013-10-07 21:53:00
5:53 PM,75.0,50.0,41,30.00,10.0,North,10.4,-,N/A,,Clear,360,2013-10-07 22:53:00
6:53 PM,71.1,52.0,51,30.01,10.0,NNW,5.8,-,N/A,,Clear,340,2013-10-07 23:53:00
7:53 PM,69.1,52.0,54,30.03,10.0,NNW,4.6,-,N/A,,Clear,330,2013-10-08 00:53:00
8:53 PM,64.9,55.9,73,30.04,10.0,Calm,Calm,-,N/A,,Clear,0,2013-10-08 01:53:00
9:53 PM,64.0,57.9,80,30.06,10.0,Calm,Calm,-,N/A,,Clear,0,2013-10-08 02:53:00
10:53 PM,61.0,57.0,87,30.07,10.0,Calm,Calm,-,N/A,,Clear,0,2013-10-08 03:53:00
11:53 PM,60.1,54.0,80,30.07,10.0,Calm,Calm,-,N/A,,Clear,0,2013-10-08 04:53:00